Time,TemperatureF,DewpointF,PressureIn,WindDirection,WindDirectionDegrees,WindSpeedMPH,WindSpeedGustMPH,Humidity,HourlyPrecipIn,Conditions,Clouds,dailyrainin,SoftwareType,DateUTC
2013-01-31 00:00:00,26.4,7.9,28.73,ESE,113,0.0,0.0,45,0.00,,,-99.99,Weather View 32 v60,2013-01-31 06:00:00,
2013-01-31 00:10:00,26.2,8.3,28.73,ESE,113,0.0,0.0,46,0.00,,,-99.99,Weather View 32 v60,2013-01-31 06:10:00,
2013-01-31 00:20:00,26.4,8.4,28.73,ESE,114,0.0,0.0,46,0.00,,,-99.99,Weather View 32 v60,2013-01-31 06:20:00,
2013-01-31 00:30:00,26.2,7.8,28.73,ESE,113,0.0,0.0,45,0.00,,,-99.99,Weather View 32 v60,2013-01-31 06:30:00,
2013-01-31 00:40:00,26.2,7.3,28.73,ESE,113,0.0,0.0,44,0.00,,,-99.99,Weather View 32 v60,2013-01-31 06:40:00,
2013-01-31 00:50:00,26.2,7.3,28.73,ESE,114,0.0,0.0,44,0.00,,,-99.99,Weather View 32 v60,2013-01-31 06:50:00,
2013-01-31 01:00:00,26.2,7.3,28.73,ESE,113,0.0,0.0,44,0.00,,,-99.99,Weather View 32 v60,2013-01-31 07:00:00,
2013-01-31 01:10:00,26.2,7.8,28.73,ESE,113,0.0,0.0,45,0.00,,,-99.99,Weather View 32 v60,2013-01-31 07:10:00,
2013-01-31 01:20:00,26.2,7.8,28.73,ESE,114,0.0,0.0,45,0.00,,,-99.99,Weather View 32 v60,2013-01-31 07:20:00,
2013-01-31 01:30:00,26.2,7.8,28.73,ESE,112,0.0,0.0,45,0.00,,,-99.99,Weather View 32 v60,2013-01-31 07:30:00,
2013-01-31 01:40:00,26.2,8.3,28.73,ESE,114,0.0,0.0,46,0.00,,,-99.99,Weather View 32 v60,2013-01-31 07:40:00,
2013-01-31 01:50:00,26.2,8.7,28.73,ESE,113,0.0,0.0,47,0.00,,,-99.99,Weather View 32 v60,2013-01-31 07:50:00,
2013-01-31 02:00:00,26.2,8.7,28.73,ESE,113,0.0,0.0,47,0.00,,,-99.99,Weather View 32 v60,2013-01-31 08:00:00,
2013-01-31 02:10:00,26.2,8.7,28.73,ESE,113,0.0,0.0,47,0.00,,,-99.99,Weather View 32 v60,2013-01-31 08:10:00,
2013-01-31 02:20:00,26.4,9.4,28.73,ESE,113,0.0,0.0,48,0.00,,,-99.99,Weather View 32 v60,2013-01-31 08:20:00,
2013-01-31 02:30:00,26.4,9.4,28.73,ESE,113,0.0,0.0,48,0.00,,,-99.99,Weather View 32 v60,2013-01-31 08:30:00,
2013-01-31 02:40:00,26.4,9.4,28.73,ESE,113,0.0,0.0,48,0.00,,,-99.99,Weather View 32 v60,2013-01-31 08:40:00,
2013-01-31 02:50:00,26.4,9.4,28.73,ESE,112,0.0,0.0,48,0.00,,,-99.99,Weather View 32 v60,2013-01-31 08:50:00,
2013-01-31 03:00:00,26.2,8.3,28.73,ESE,114,0.0,0.0,46,0.00,,,-99.99,Weather View 32 v60,2013-01-31 09:00:00,
2013-01-31 03:10:00,26.2,7.8,28.73,ESE,112,0.0,0.0,45,0.00,,,-99.99,Weather View 32 v60,2013-01-31 09:10:00,
2013-01-31 03:20:00,26.2,7.3,28.73,ESE,113,0.0,0.0,44,0.00,,,-99.99,Weather View 32 v60,2013-01-31 09:20:00,
2013-01-31 03:30:00,25.9,7.0,28.73,ESE,113,0.0,0.0,44,0.00,,,-99.99,Weather View 32 v60,2013-01-31 09:30:00,
2013-01-31 03:40:00,25.5,7.1,28.73,ESE,113,0.0,0.0,45,0.00,,,-99.99,Weather View 32 v60,2013-01-31 09:40:00,
2013-01-31 03:50:00,25.3,7.0,28.73,ESE,113,0.0,0.0,45,0.00,,,-99.99,Weather View 32 v60,2013-01-31 09:50:00,
2013-01-31 04:00:00,25.3,7.4,28.73,ESE,113,0.0,0.0,46,0.00,,,-99.99,Weather View 32 v60,2013-01-31 10:00:00,
2013-01-31 04:10:00,25.3,7.4,28.73,ESE,113,0.0,0.0,46,0.00,,,-99.99,Weather View 32 v60,2013-01-31 10:10:00,
2013-01-31 04:20:00,25.3,7.4,28.73,ESE,113,0.0,0.0,46,0.00,,,-99.99,Weather View 32 v60,2013-01-31 10:20:00,
2013-01-31 04:30:00,25.2,7.3,28.73,ESE,113,0.0,0.0,46,0.00,,,-99.99,Weather View 32 v60,2013-01-31 10:30:00,
2013-01-31 04:40:00,25.2,7.7,28.73,ESE,114,0.0,0.0,47,0.00,,,-99.99,Weather View 32 v60,2013-01-31 10:40:00,
2013-01-31 04:50:00,25.2,7.7,28.73,ESE,113,0.0,0.0,47,0.00,,,-99.99,Weather View 32 v60,2013-01-31 10:50:00,
2013-01-31 05:00:00,25.0,7.6,28.73,ESE,113,0.0,0.0,47,0.00,,,-99.99,Weather View 32 v60,2013-01-31 11:00:00,
2013-01-31 05:10:00,25.2,7.7,28.73,ESE,113,0.0,0.0,47,0.00,,,-99.99,Weather View 32 v60,2013-01-31 11:10:00,
2013-01-31 05:20:00,25.2,8.2,28.73,ESE,112,0.0,0.0,48,0.00,,,-99.99,Weather View 32 v60,2013-01-31 11:20:00,
2013-01-31 05:30:00,25.3,8.4,28.73,ESE,112,0.0,0.0,48,0.00,,,-99.99,Weather View 32 v60,2013-01-31 11:30:00,
2013-01-31 05:40:00,25.5,9.0,28.73,ESE,111,0.0,0.0,49,0.00,,,-99.99,Weather View 32 v60,2013-01-31 11:40:00,
2013-01-31 05:50:00,25.3,8.4,28.73,ESE,111,0.0,0.0,48,0.00,,,-99.99,Weather View 32 v60,2013-01-31 11:50:00,
2013-01-31 06:00:00,25.3,8.8,28.73,ESE,111,0.0,0.0,49,0.00,,,-99.99,Weather View 32 v60,2013-01-31 12:00:00,
2013-01-31 06:10:00,25.5,9.0,28.73,ESE,112,0.0,0.0,49,0.00,,,-99.99,Weather View 32 v60,2013-01-31 12:10:00,
2013-01-31 06:20:00,25.7,9.2,28.73,ESE,112,0.0,0.0,49,0.00,,,-99.99,Weather View 32 v60,2013-01-31 12:20:00,
2013-01-31 06:25:00,25.7,9.2,28.73,ESE,112,0.0,0.0,49,0.00,,,-99.99,Weather View 32 v60,2013-01-31 12:25:00,
2013-01-31 06:40:00,25.7,9.6,28.76,ESE,111,0.0,0.0,50,0.00,,,-99.99,Weather View 32 v60,2013-01-31 12:40:00,
2013-01-31 06:50:00,25.9,9.8,28.76,ESE,111,0.0,0.0,50,0.00,,,-99.99,Weather View 32 v60,2013-01-31 12:50:00,
2013-01-31 07:00:00,25.9,9.8,28.76,ESE,110,0.0,0.0,50,0.00,,,-99.99,Weather View 32 v60,2013-01-31 13:00:00,
2013-01-31 07:10:00,25.9,10.2,28.76,ESE,109,0.0,0.0,51,0.00,,,-99.99,Weather View 32 v60,2013-01-31 13:10:00,
2013-01-31 07:20:00,26.1,10.4,28.76,ESE,109,0.0,0.0,51,0.00,,,-99.99,Weather View 32 v60,2013-01-31 13:20:00,
2013-01-31 07:26:00,26.1,10.4,28.76,ESE,109,0.0,0.0,51,0.00,,,-99.99,Weather View 32 v60,2013-01-31 13:26:00,
2013-01-31 07:40:00,26.2,11.0,28.76,ESE,109,0.0,0.0,52,0.00,,,-99.99,Weather View 32 v60,2013-01-31 13:40:00,
2013-01-31 07:50:00,26.2,11.0,28.76,ESE,109,0.0,0.0,52,0.00,,,-99.99,Weather View 32 v60,2013-01-31 13:50:00,
2013-01-31 08:00:00,26.2,11.0,28.76,ESE,109,0.0,0.0,52,0.00,,,-99.99,Weather View 32 v60,2013-01-31 14:00:00,
2013-01-31 08:10:00,26.4,11.2,28.76,ESE,107,0.0,0.0,52,0.00,,,-99.99,Weather View 32 v60,2013-01-31 14:10:00,
2013-01-31 08:20:00,26.8,11.5,28.79,ESE,107,0.0,0.0,52,0.00,,,-99.99,Weather View 32 v60,2013-01-31 14:20:00,
2013-01-31 08:26:00,26.8,11.5,28.79,ESE,107,0.0,0.0,52,0.00,,,-99.99,Weather View 32 v60,2013-01-31 14:26:00,
2013-01-31 08:40:00,27.1,11.8,28.79,ESE,106,0.0,0.0,52,0.00,,,-99.99,Weather View 32 v60,2013-01-31 14:40:00,
2013-01-31 08:50:00,27.5,11.7,28.79,ESE,105,0.0,0.0,51,0.00,,,-99.99,Weather View 32 v60,2013-01-31 14:50:00,
2013-01-31 09:00:00,27.9,12.1,28.82,ESE,103,0.0,0.0,51,0.00,,,-99.99,Weather View 32 v60,2013-01-31 15:00:00,
2013-01-31 09:10:00,28.2,11.5,28.82,ESE,106,0.0,0.0,49,0.00,,,-99.99,Weather View 32 v60,2013-01-31 15:10:00,
2013-01-31 09:20:00,28.9,11.7,28.82,ESE,105,0.0,0.0,48,0.00,,,-99.99,Weather View 32 v60,2013-01-31 15:20:00,
2013-01-31 09:27:00,28.9,11.7,28.82,ESE,105,0.0,0.0,48,0.00,,,-99.99,Weather View 32 v60,2013-01-31 15:27:00,
2013-01-31 09:40:00,30.2,10.9,28.82,East,101,0.0,0.0,44,0.00,,,-99.99,Weather View 32 v60,2013-01-31 15:40:00,
2013-01-31 09:50:00,30.9,10.5,28.82,East,96,0.0,0.0,42,0.00,,,-99.99,Weather View 32 v60,2013-01-31 15:50:00,
2013-01-31 10:00:00,31.5,10.5,28.82,East,95,0.0,0.0,41,0.00,,,-99.99,Weather View 32 v60,2013-01-31 16:00:00,
2013-01-31 10:10:00,32.0,10.4,28.82,East,95,4.0,12.0,40,0.00,,,-99.99,Weather View 32 v60,2013-01-31 16:10:00,
2013-01-31 10:20:00,32.5,10.9,28.82,East,94,0.0,12.0,40,0.00,,,-99.99,Weather View 32 v60,2013-01-31 16:20:00,
2013-01-31 10:27:00,32.5,10.9,28.82,East,94,0.0,12.0,40,0.00,,,-99.99,Weather View 32 v60,2013-01-31 16:27:00,
2013-01-31 10:40:00,33.6,10.7,28.82,East,94,4.0,12.0,38,0.00,,,-99.99,Weather View 32 v60,2013-01-31 16:40:00,
2013-01-31 10:50:00,33.8,9.6,28.82,East,92,0.0,12.0,36,0.00,,,-99.99,Weather View 32 v60,2013-01-31 16:50:00,
2013-01-31 11:00:00,34.2,9.3,28.82,East,90,0.0,12.0,35,0.00,,,-99.99,Weather View 32 v60,2013-01-31 17:00:00,
2013-01-31 11:10:00,34.7,9.2,28.82,East,89,4.0,11.0,34,0.00,,,-99.99,Weather View 32 v60,2013-01-31 17:10:00,
2013-01-31 11:20:00,35.1,8.8,28.82,East,87,0.0,11.0,33,0.00,,,-99.99,Weather View 32 v60,2013-01-31 17:20:00,
2013-01-31 11:28:00,35.1,8.8,28.82,East,87,0.0,11.0,33,0.00,,,-99.99,Weather View 32 v60,2013-01-31 17:28:00,
2013-01-31 11:40:00,36.0,8.2,28.82,East,85,0.0,12.0,31,0.00,,,-99.99,Weather View 32 v60,2013-01-31 17:40:00,
2013-01-31 11:50:00,36.3,9.2,28.82,East,88,4.0,12.0,32,0.00,,,-99.99,Weather View 32 v60,2013-01-31 17:50:00,
2013-01-31 12:00:00,37.0,9.2,28.79,East,89,5.0,12.0,31,0.00,,,-99.99,Weather View 32 v60,2013-01-31 18:00:00,
2013-01-31 12:10:00,36.9,8.3,28.79,East,89,3.0,12.0,30,0.00,,,-99.99,Weather View 32 v60,2013-01-31 18:10:00,
2013-01-31 12:20:00,36.9,9.0,28.79,East,90,3.0,12.0,31,0.00,,,-99.99,Weather View 32 v60,2013-01-31 18:20:00,
2013-01-31 12:29:00,36.9,9.0,28.79,East,90,3.0,12.0,31,0.00,,,-99.99,Weather View 32 v60,2013-01-31 18:29:00,
2013-01-31 12:40:00,37.0,8.4,28.79,East,90,8.0,13.0,30,0.00,,,-99.99,Weather View 32 v60,2013-01-31 18:40:00,
2013-01-31 12:50:00,36.7,8.1,28.79,East,91,4.0,14.0,30,0.00,,,-99.99,Weather View 32 v60,2013-01-31 18:50:00,
2013-01-31 13:00:00,36.1,8.4,28.79,East,91,4.0,14.0,31,0.00,,,-99.99,Weather View 32 v60,2013-01-31 19:00:00,
2013-01-31 13:10:00,35.6,10.0,28.79,East,92,9.0,14.0,34,0.00,,,-99.99,Weather View 32 v60,2013-01-31 19:10:00,
2013-01-31 13:20:00,35.1,11.4,28.82,East,93,4.0,14.0,37,0.00,,,-99.99,Weather View 32 v60,2013-01-31 19:20:00,
2013-01-31 13:29:00,35.1,11.4,28.82,East,93,4.0,14.0,37,0.00,,,-99.99,Weather View 32 v60,2013-01-31 19:29:00,
2013-01-31 13:40:00,33.4,14.9,28.82,East,93,0.0,14.0,46,0.00,,,-99.99,Weather View 32 v60,2013-01-31 19:40:00,
2013-01-31 13:50:00,32.7,16.6,28.82,East,95,5.0,14.0,51,0.00,,,-99.99,Weather View 32 v60,2013-01-31 19:50:00,
2013-01-31 14:00:00,32.0,17.2,28.84,East,94,7.0,14.0,54,0.00,,,-99.99,Weather View 32 v60,2013-01-31 20:00:00,
2013-01-31 14:10:00,30.6,17.9,28.84,East,96,7.0,14.0,59,0.00,,,-99.99,Weather View 32 v60,2013-01-31 20:10:00,
2013-01-31 14:20:00,30.4,19.3,28.84,East,95,12.0,14.0,63,0.00,,,-99.99,Weather View 32 v60,2013-01-31 20:20:00,
2013-01-31 14:30:00,29.8,18.8,28.87,East,96,3.0,14.0,63,0.00,,,-99.99,Weather View 32 v60,2013-01-31 20:30:00,
2013-01-31 14:40:00,29.8,18.8,28.87,East,96,7.0,15.0,63,0.00,,,-99.99,Weather View 32 v60,2013-01-31 20:40:00,
2013-01-31 14:50:00,29.7,15.5,28.87,East,96,0.0,15.0,55,0.00,,,-99.99,Weather View 32 v60,2013-01-31 20:50:00,
2013-01-31 15:00:00,29.1,14.1,28.87,East,96,5.0,15.0,53,0.00,,,-99.99,Weather View 32 v60,2013-01-31 21:00:00,
2013-01-31 15:10:00,29.1,14.1,28.87,East,96,3.0,15.0,53,0.00,,,-99.99,Weather View 32 v60,2013-01-31 21:10:00,
2013-01-31 15:20:00,29.1,13.2,28.87,East,96,3.0,15.0,51,0.00,,,-99.99,Weather View 32 v60,2013-01-31 21:20:00,
2013-01-31 15:30:00,28.6,10.4,28.87,East,95,9.0,18.0,46,0.00,,,-99.99,Weather View 32 v60,2013-01-31 21:30:00,
2013-01-31 15:40:00,28.0,8.4,28.87,East,97,9.0,18.0,43,0.00,,,-99.99,Weather View 32 v60,2013-01-31 21:40:00,
2013-01-31 15:50:00,27.5,7.9,28.90,East,100,0.0,18.0,43,0.00,,,-99.99,Weather View 32 v60,2013-01-31 21:50:00,
2013-01-31 16:00:00,27.1,8.1,28.90,ESE,106,3.0,18.0,44,0.00,,,-99.99,Weather View 32 v60,2013-01-31 22:00:00,
2013-01-31 16:10:00,26.4,6.4,28.90,ESE,107,4.0,18.0,42,0.00,,,-99.99,Weather View 32 v60,2013-01-31 22:10:00,
2013-01-31 16:20:00,25.9,2.0,28.90,ESE,106,0.0,18.0,35,0.00,,,-99.99,Weather View 32 v60,2013-01-31 22:20:00,
2013-01-31 16:30:00,25.5,0.4,28.93,ESE,106,0.0,18.0,33,0.00,,,-99.99,Weather View 32 v60,2013-01-31 22:30:00,
2013-01-31 16:40:00,25.3,0.2,28.93,ESE,105,3.0,16.0,33,0.00,,,-99.99,Weather View 32 v60,2013-01-31 22:40:00,
2013-01-31 16:50:00,24.8,-0.2,28.93,ESE,106,3.0,12.0,33,0.00,,,-99.99,Weather View 32 v60,2013-01-31 22:50:00,
2013-01-31 17:00:00,24.4,-0.6,28.93,ESE,107,5.0,12.0,33,0.00,,,-99.99,Weather View 32 v60,2013-01-31 23:00:00,
2013-01-31 17:10:00,23.7,-1.2,28.93,ESE,112,0.0,12.0,33,0.00,,,-99.99,Weather View 32 v60,2013-01-31 23:10:00,
2013-01-31 17:20:00,23.4,-1.5,28.93,ESE,113,0.0,12.0,33,0.00,,,-99.99,Weather View 32 v60,2013-01-31 23:20:00,
2013-01-31 17:30:00,22.6,-2.8,28.96,ESE,113,0.0,12.0,32,0.00,,,-99.99,Weather View 32 v60,2013-01-31 23:30:00,
2013-01-31 17:40:00,22.3,-3.1,28.96,ESE,114,6.0,12.0,32,0.00,,,-99.99,Weather View 32 v60,2013-01-31 23:40:00,
2013-01-31 17:50:00,21.9,-3.4,28.96,ESE,113,0.0,12.0,32,0.00,,,-99.99,Weather View 32 v60,2013-01-31 23:50:00,
2013-01-31 18:00:00,21.4,-5.3,28.96,ESE,113,4.0,12.0,30,0.00,,,-99.99,Weather View 32 v60,2013-02-01 00:00:00,
2013-01-31 18:10:00,21.0,-5.6,28.96,ESE,114,3.0,12.0,30,0.00,,,-99.99,Weather View 32 v60,2013-02-01 00:10:00,
2013-01-31 18:20:00,20.7,-4.5,28.99,ESE,114,0.0,12.0,32,0.00,,,-99.99,Weather View 32 v60,2013-02-01 00:20:00,
2013-01-31 18:30:00,20.3,-4.9,28.99,ESE,113,6.0,10.0,32,0.00,,,-99.99,Weather View 32 v60,2013-02-01 00:30:00,
2013-01-31 18:40:00,20.1,-4.4,28.99,ESE,114,0.0,10.0,33,0.00,,,-99.99,Weather View 32 v60,2013-02-01 00:40:00,
2013-01-31 18:50:00,19.9,-4.5,28.99,ESE,115,0.0,10.0,33,0.00,,,-99.99,Weather View 32 v60,2013-02-01 00:50:00,
2013-01-31 19:00:00,19.4,-5.0,29.02,ESE,115,7.0,11.0,33,0.00,,,-99.99,Weather View 32 v60,2013-02-01 01:00:00,
2013-01-31 19:10:00,19.0,-4.7,29.02,ESE,114,4.0,11.0,34,0.00,,,-99.99,Weather View 32 v60,2013-02-01 01:10:00,
2013-01-31 19:20:00,18.7,-5.0,29.02,ESE,115,0.0,11.0,34,0.00,,,-99.99,Weather View 32 v60,2013-02-01 01:20:00,
2013-01-31 19:30:00,18.3,-4.8,29.02,ESE,116,0.0,11.0,35,0.00,,,-99.99,Weather View 32 v60,2013-02-01 01:30:00,
2013-01-31 19:40:00,18.0,-5.1,29.02,ESE,116,4.0,11.0,35,0.00,,,-99.99,Weather View 32 v60,2013-02-01 01:40:00,
2013-01-31 19:50:00,17.4,-5.6,29.05,ESE,117,7.0,11.0,35,0.00,,,-99.99,Weather View 32 v60,2013-02-01 01:50:00,
2013-01-31 20:00:00,16.9,-6.0,29.05,ESE,115,3.0,10.0,35,0.00,,,-99.99,Weather View 32 v60,2013-02-01 02:00:00,
2013-01-31 20:10:00,16.7,-5.6,29.05,ESE,115,4.0,10.0,36,0.00,,,-99.99,Weather View 32 v60,2013-02-01 02:10:00,
2013-01-31 20:20:00,16.2,-6.1,29.05,ESE,115,5.0,10.0,36,0.00,,,-99.99,Weather View 32 v60,2013-02-01 02:20:00,
2013-01-31 20:30:00,15.8,-6.4,29.08,ESE,116,0.0,10.0,36,0.00,,,-99.99,Weather View 32 v60,2013-02-01 02:30:00,
2013-01-31 20:40:00,15.4,-6.8,29.08,ESE,116,4.0,10.0,36,0.00,,,-99.99,Weather View 32 v60,2013-02-01 02:40:00,
2013-01-31 20:50:00,15.3,-7.5,29.08,ESE,115,0.0,10.0,35,0.00,,,-99.99,Weather View 32 v60,2013-02-01 02:50:00,
2013-01-31 21:00:00,14.9,-7.8,29.08,ESE,114,3.0,10.0,35,0.00,,,-99.99,Weather View 32 v60,2013-02-01 03:00:00,
2013-01-31 21:10:00,14.7,-7.4,29.08,ESE,116,0.0,10.0,36,0.00,,,-99.99,Weather View 32 v60,2013-02-01 03:10:00,
2013-01-31 21:20:00,14.5,-7.6,29.11,ESE,115,0.0,10.0,36,0.00,,,-99.99,Weather View 32 v60,2013-02-01 03:20:00,
2013-01-31 21:30:00,14.5,-6.4,29.11,ESE,115,0.0,10.0,38,0.00,,,-99.99,Weather View 32 v60,2013-02-01 03:30:00,
2013-01-31 21:40:00,14.2,-6.8,29.11,ESE,114,0.0,14.0,38,0.00,,,-99.99,Weather View 32 v60,2013-02-01 03:40:00,
2013-01-31 21:50:00,14.0,-6.9,29.11,ESE,114,0.0,14.0,38,0.00,,,-99.99,Weather View 32 v60,2013-02-01 03:50:00,
2013-01-31 22:00:00,13.8,0.0,29.11,ESE,114,4.0,14.0,0,0.00,,,-99.99,Weather View 32 v60,2013-02-01 04:00:00,
2013-01-31 22:10:00,13.5,0.0,29.11,ESE,115,0.0,14.0,0,0.00,,,-99.99,Weather View 32 v60,2013-02-01 04:10:00,
2013-01-31 22:20:00,13.5,0.0,29.14,ESE,114,0.0,14.0,0,0.00,,,-99.99,Weather View 32 v60,2013-02-01 04:20:00,
2013-01-31 22:30:00,13.1,0.0,29.14,ESE,114,4.0,14.0,0,0.00,,,-99.99,Weather View 32 v60,2013-02-01 04:30:00,
2013-01-31 22:40:00,12.7,0.0,29.14,ESE,114,3.0,11.0,0,0.00,,,-99.99,Weather View 32 v60,2013-02-01 04:40:00,
2013-01-31 22:50:00,12.6,0.0,29.14,ESE,114,5.0,11.0,0,0.00,,,-99.99,Weather View 32 v60,2013-02-01 04:50:00,
2013-01-31 23:00:00,12.0,0.0,29.14,ESE,114,8.0,12.0,0,0.00,,,-99.99,Weather View 32 v60,2013-02-01 05:00:00,
2013-01-31 23:10:00,11.8,0.0,29.14,ESE,115,6.0,12.0,0,0.00,,,-99.99,Weather View 32 v60,2013-02-01 05:10:00,
2013-01-31 23:20:00,11.8,0.0,29.17,ESE,115,0.0,12.0,0,0.00,,,-99.99,Weather View 32 v60,2013-02-01 05:20:00,
2013-01-31 23:30:00,11.8,0.0,29.17,ESE,115,0.0,12.0,0,0.00,,,-99.99,Weather View 32 v60,2013-02-01 05:30:00,
2013-01-31 23:40:00,11.8,0.0,29.17,ESE,115,0.0,12.0,0,0.00,,,-99.99,Weather View 32 v60,2013-02-01 05:40:00,
2013-01-31 23:50:00,11.7,0.0,29.14,ESE,114,0.0,12.0,0,0.00,,,-99.99,Weather View 32 v60,2013-02-01 05:50:00,